Location: Maddington
(51.2000°N, 1.9167°W)
Time: 16:07:03
(UTC+00:00)

Cosmos 1125 Rocket - Pass Details

Date: 19 June 2021
Orbit: 757 x 780 km, 74.0° (Epoch: 28 July)

Event Time Altitude Azimuth Distance (km) Brightness Sun altitude
Rises 01:39:01 0° 338° (NNW) 3,242 7.5 -12.8°
Reaches altitude 10° 01:41:33 10° 346° (NNW) 2,316 6.9 -12.6°
Maximum altitude 01:46:29 39° 56° (NE) 1,140 4.9 -12.4°
Drops below altitude 10° 01:51:24 10° 125° (SE) 2,317 5.9 -12.0°
Sets 01:53:56 0° 133° (SE) 3,244 6.6 -11.9°
